Regional Weather Roundup
Issued by NWS

Current Version | Previous Version | Text Only | Print | Product List | Glossary On
Versions: 1 2 3 4 5 6 7 8 9 10 11 12 13 14 15 16 17 18 19 20 21 22 23 24 25 26 27 28 29 30 31 32 33 34 35 36 37 38 39 40 41 42 43 44 45 46 47 48 49 50
000
ASCA42 TJSJ 230711
RWRPR
PUERTO RICO/U.S. VIRGIN ISLANDS HOURLY WEATHER ROUNDUP
NATIONAL WEATHER SERVICE SAN JUAN PR
300 AM AST WED APR 23 2014

PRZ001-004-230800-
PUERTO RICO

CITY           SKY/WX    TMP DP  RH WIND       PRES   REMARKS
SAN JUAN LMM   CLEAR     81  72  74 S3        29.92F
PONCE          PTCLDY    75 N/A N/A CALM      29.91
$$

PRZ006-007-230800-
U.S. VIRGIN ISLANDS

CITY           SKY/WX    TMP DP  RH WIND       PRES   REMARKS
CHARLOTTE AMA  PTCLDY    81  75  83 S9        29.92F
CHRISTIANSTED  PTCLDY    81  73  78 SE6       29.93F
$$

HOURLY WEATHER ROUNDUP FOR THE NEWS MEDIA

CITY           SKY/WX    TMP DP  RH WIND       PRES   REMARKS
MIAMI          CLOUDY    70  63  78 NW6       29.91S
ORLANDO        MOCLDY    66  61  84 W7        29.88F
NEW YORK       MOCLDY    53  48  83 SW9       29.50S
NEWARK         CLOUDY    58  47  66 W10       29.51R
CHICAGO        CLEAR     38  27  64 NE9       30.11R WCI  31
HARTFORD       CLOUDY    49  48  97 W3        29.45F FOG
BOSTON         CLOUDY    54  50  86 SW9       29.45S
DALLAS         CLEAR     65  56  72 SE6       29.93F
PHILADELPHIA   CLOUDY    53  31  42 NW20G31   29.63R



USA.gov is the U.S. government's official web portal to all federal, state and local government web resources and services.